METEOSAT-8 (MSG-1)

Last updated on Oct. 27, 2021, 12:02 a.m. UTC

1 27509U 02040B   21299.07427811  .00000144  00000-0  00000-0 0  9991
2 27509   7.6077  51.8385 0001870 192.5537 218.5968  1.00278999 70269
UTC
Height (km)
Latitude
Longitude
Inclination
Orbital Period
UTC large
Height (km)
Speed (km/s)
/
Latitude / Longitude
Inclination (degrees)
Orbital Period (minutes)
Azimuth
Elevation
Range (km)
Doppler Factor
iOS Compass Heading
iOS Angle